[[{"header":{"parameterUnit":"m.s-1","parameterCategory":1,"la1":30.2991,"la2":30.254,"lo1":-89.0895,"lo2":-89.0444,"dy":0.0017,"dx":0.0017,"nx":28,"ny":28,"refTime":"2025-05-16T21:00:00:Z","depth":0,"parameterNumber":2,"parameterNumberName":"U-component_of_WINDS"},"data":[0,0,0,0,0,0,0,0,0,0,0,0,0,0,0,0,0,0,0,0,0,0,0,0,0,0,0,0,0,0,0,0,0,0,0,0,0,0,0,0,0,0,0,0,0,0,0,0,0,0,0,0,0,0,0,0,0,0,1.0727,1.0728,0,1.0838,1.084,1.0841,1.0859,1.0858,1.0857,1.0856,1.0974,1.0978,1.0982,0,0,0,0,0,0,0,0,0,0,0,0,0,1.0532,1.0535,1.0726,1.0728,1.0729,1.0838,1.084,1.0841,1.0859,1.0857,1.0856,1.0855,1.0973,1.0978,1.0983,0,0,0,0,0,0,0,0,0,0,0,0,0,1.0627,1.0536,1.0726,1.0751,1.0754,1.0838,1.084,1.0842,1.0859,1.0857,1.0856,1.0855,1.0971,1.0977,1.0983,1.1051,0,0,1.1002,1.1005,0,0,0,0,0,0,0,0,1.0622,1.0635,1.0746,1.0749,1.0753,1.0833,1.0815,1.0912,1.0859,1.0819,1.0856,1.0854,1.0929,1.0938,1.0963,1.1057,1.1062,1.1003,1.1006,1.1009,1.1011,0,0,0,0,0,0,0,1.0615,1.063,1.0771,1.0748,1.0752,1.0758,1.077,1.0833,1.0881,1.0823,1.0824,1.0837,1.0931,1.0957,1.0966,1.1064,1.1003,1.1008,1.1012,1.1014,1.122,1.1221,0,0,0,0,0,0,1.0604,1.0624,1.0767,1.0774,1.0682,1.0762,1.0776,1.0809,1.0881,1.089,1.0838,1.0837,1.0947,1.0958,1.097,1.1054,1.1009,1.1015,1.1018,1.1218,1.122,1.1222,0,0,0,0,0,0,1.0599,1.0616,1.0763,1.07,1.0719,1.0767,1.0804,1.0812,1.0838,1.0892,1.0901,1.0856,1.0946,1.0961,1.1031,1.1058,1.1018,1.1023,1.1216,1.1219,1.1221,1.1223,0,0,0,0,0,0,1.0594,1.0615,1.064,1.07,1.0722,1.082,1.0806,1.0815,1.0848,1.0848,1.0911,1.092,1.0946,1.1021,1.1037,1.1066,1.1028,1.1214,1.1217,1.122,1.1221,1.1225,1.1229,0,0,0,0,0,1.0587,1.0637,1.0641,1.0658,1.0754,1.0822,1.0835,1.0862,1.085,1.0877,1.0912,1.0918,1.1053,1.1028,1.1046,1.1078,1.1212,1.1216,1.122,1.1219,1.1224,1.1229,0,0,0,0,0,0,1.058,1.0645,1.0651,1.0721,1.0766,1.0825,1.0859,1.0868,1.0917,1.0916,1.0949,1.0963,1.1031,1.1062,1.1033,1.1147,1.1132,1.1139,1.1125,1.1131,1.1135,1.1126,1.1033,0,0,0,0,0,1.0586,1.0635,1.069,1.0747,1.0769,1.081,1.084,1.0858,1.0906,1.0925,1.0965,1.1013,1.1066,1.11,1.1152,1.1225,1.124,1.1256,1.126,1.1263,1.127,1.1311,1.1319,1.1235,1.1235,1.1235,0,0,1.0601,1.0642,1.0671,1.0746,1.0783,1.0833,1.0826,1.0879,1.0917,1.0934,1.1001,1.1032,1.1088,1.1159,1.1193,1.1187,1.1296,1.1268,1.1271,1.1275,1.1316,1.1324,1.1331,1.1238,1.1237,1.1237,0,0,1.0652,1.0688,1.074,1.0777,1.0832,1.0859,1.0871,1.0929,1.095,1.1018,1.1031,1.1078,1.1168,1.1207,1.1239,1.1305,1.1314,1.1322,1.1345,1.1384,1.1391,1.1397,1.1421,1.1429,1.1328,1.1328,1.1328,0,1.0664,1.0738,1.0766,1.0819,1.0852,1.0868,1.0921,1.0956,1.1025,1.1048,1.104,1.1154,1.1193,1.1274,1.129,1.1315,1.1331,1.1314,1.1388,1.1394,1.14,1.1423,1.1432,1.1328,1.1328,1.1328,1.1328,0,1.075,1.0802,1.0837,1.0902,1.094,1.0992,1.1029,1.1064,1.1078,1.1106,1.1176,1.1222,1.1284,1.1305,1.132,1.1388,1.1382,1.1381,1.1366,1.1408,1.143,1.1439,1.1329,1.1329,1.1329,1.1329,0,0,1.08,1.0879,1.0892,1.0922,1.0984,1.1025,1.1079,1.1138,1.1167,1.1215,1.1262,1.1338,1.1337,1.1372,1.1392,1.1427,1.1477,1.1421,1.1423,1.143,1.1556,1.1556,1.1566,1.1483,1.1485,1.1486,1.1551,0,1.0858,1.0954,1.098,1.1061,1.111,1.1126,1.1173,1.1217,1.1245,1.1292,1.1324,1.1377,1.1371,1.1393,1.1428,1.1463,1.1503,1.1459,1.1527,1.153,1.1513,1.1578,1.1579,1.1637,1.156,1.1561,1.1562,0,1.094,1.0987,1.1073,1.1129,1.115,1.1192,1.1248,1.1292,1.1343,1.1361,1.1401,1.1417,1.1475,1.1457,1.1538,1.1508,1.1538,1.1559,1.1562,1.157,1.1548,1.1587,1.1657,1.1666,1.1576,1.1575,1.1574,0,1.0967,1.1053,1.1116,1.1141,1.1208,1.1237,1.1266,1.1315,1.1349,1.1399,1.1421,1.1477,1.1508,1.1552,1.1584,1.1568,1.1662,1.1647,1.1679,1.1679,1.1698,1.1697,1.1774,1.1718,1.1718,1.1718,1.1717,0,1.103,1.1081,1.1129,1.1167,1.1226,1.1257,1.1314,1.1345,1.1388,1.1434,1.1452,1.1494,1.1534,1.1582,1.1607,1.167,1.1684,1.1701,1.1707,1.1699,1.1697,1.1719,1.1716,1.172,1.1719,1.1719,1.1719,0,1.107,1.1104,1.1173,1.1231,1.1246,1.1287,1.1337,1.1375,1.1404,1.1461,1.1477,1.1522,1.158,1.1616,1.1689,1.1706,1.1776,1.1781,1.1758,1.1761,1.1792,1.1788,1.1886,1.19,1.1834,1.1835,1.1835,0,1.1108,1.1148,1.1209,1.124,1.127,1.132,1.1354,1.1386,1.1422,1.1482,1.1514,1.1572,1.162,1.1712,1.1752,1.1808,1.1815,1.1845,1.1823,1.1814,1.1815,1.1812,1.1816,1.1849,1.1849,1.185,1.185,0,1.117,1.1185,1.1233,1.1288,1.1328,1.1373,1.1417,1.1442,1.1482,1.1521,1.1579,1.1617,1.1691,1.1749,1.1809,1.1841,1.1852,1.1856,1.1867,1.1859,1.1844,1.1852,1.1768,1.1854,1.1854,1.1853,1.1853,1.1853,1.1211,1.1247,1.1296,1.1349,1.1386,1.1427,1.1466,1.15,1.1548,1.1611,1.1627,1.1688,1.1739,1.182,1.1853,1.1902,1.1898,1.1913,1.1917,1.192,1.192,1.1836,1.1913,1.1913,1.1913,1.1913,1.1913,0,1.1274,1.1306,1.1355,1.1416,1.1459,1.1465,1.1515,1.155,1.1603,1.1648,1.1695,1.1763,1.1819,1.1864,1.1922,1.1953,1.196,1.1967,1.1965,1.1972,1.1921,1.1906,1.196,1.196,1.196,1.196,1.196,1.196,1.1312,1.1374,1.1394,1.1475,1.1508,1.1567,1.1595,1.1633,1.167,1.1743,1.179,1.1818,1.1864,1.1926,1.1978,1.199,1.201,1.2017,1.2029,1.1981,1.1976,1.1971,1.1957,1.2021,1.2021,1.2076,1.2077,1.2077]},{"header":{"parameterUnit":"m.s-1","parameterCategory":1,"la1":30.2991,"la2":30.254,"lo1":-89.0895,"lo2":-89.0444,"dy":0.0017,"dx":0.0017,"nx":28,"ny":28,"refTime":"2025-05-16T21:00:00:Z","depth":0,"parameterNumber":3,"parameterNumberName":"V-component_of_WINDS"},"data":[0,0,0,0,0,0,0,0,0,0,0,0,0,0,0,0,0,0,0,0,0,0,0,0,0,0,0,0,0,0,0,0,0,0,0,0,0,0,0,0,0,0,0,0,0,0,0,0,0,0,0,0,0,0,0,0,0,0,4.306,4.306,0,4.3076,4.3076,4.3076,4.308,4.308,4.308,4.308,4.3094,4.3094,4.3094,0,0,0,0,0,0,0,0,0,0,0,0,0,4.303,4.303,4.306,4.306,4.306,4.3076,4.3076,4.3076,4.308,4.308,4.308,4.308,4.3093,4.3094,4.3095,0,0,0,0,0,0,0,0,0,0,0,0,0,4.3044,4.303,4.306,4.3064,4.3065,4.3076,4.3076,4.3077,4.308,4.308,4.308,4.308,4.3093,4.3094,4.3095,4.3102,0,0,4.3097,4.3097,0,0,0,0,0,0,0,0,4.3043,4.3045,4.3063,4.3064,4.3064,4.3076,4.3071,4.3085,4.308,4.3074,4.308,4.308,4.3088,4.3089,4.3092,4.3102,4.3103,4.3097,4.3097,4.3097,4.3098,0,0,0,0,0,0,0,4.3042,4.3044,4.3066,4.3063,4.3064,4.3065,4.3066,4.3073,4.3081,4.3075,4.3075,4.3077,4.3088,4.3091,4.3092,4.3103,4.3097,4.3097,4.3098,4.3098,4.3121,4.3122,0,0,0,0,0,0,4.3041,4.3043,4.3066,4.3067,4.3053,4.3065,4.3067,4.3072,4.3081,4.3083,4.3077,4.3077,4.309,4.3092,4.3093,4.3103,4.3097,4.3098,4.3098,4.3121,4.3121,4.3122,0,0,0,0,0,0,4.304,4.3043,4.3065,4.3055,4.3058,4.3066,4.3072,4.3073,4.3076,4.3083,4.3085,4.308,4.309,4.3092,4.31,4.3103,4.3098,4.3099,4.3121,4.3121,4.3121,4.3122,0,0,0,0,0,0,4.3039,4.3042,4.3046,4.3055,4.3059,4.3072,4.3072,4.3073,4.3078,4.3078,4.3086,4.3087,4.309,4.3099,4.3101,4.3104,4.3099,4.3121,4.3121,4.3121,4.3122,4.3122,4.3123,0,0,0,0,0,4.3038,4.3044,4.3046,4.3048,4.3063,4.3072,4.3074,4.3079,4.3078,4.3081,4.3086,4.3087,4.3103,4.31,4.3102,4.3105,4.312,4.3121,4.3121,4.3121,4.3122,4.3123,0,0,0,0,0,0,4.3033,4.3045,4.3047,4.3057,4.3064,4.3073,4.3077,4.3079,4.3086,4.3086,4.309,4.3092,4.31,4.3103,4.31,4.3113,4.3111,4.3112,4.3111,4.3112,4.3112,4.3111,4.31,0,0,0,0,0,4.3033,4.3041,4.3051,4.3058,4.3062,4.3069,4.3073,4.3077,4.3083,4.3086,4.3091,4.3097,4.3104,4.3108,4.3114,4.3122,4.3124,4.3126,4.3126,4.3127,4.3127,4.3133,4.3134,4.3123,4.3123,4.3123,0,0,4.3032,4.304,4.3045,4.3057,4.3063,4.307,4.3071,4.3078,4.3084,4.3087,4.3095,4.3099,4.3106,4.3115,4.3119,4.3118,4.3131,4.3127,4.3128,4.3128,4.3134,4.3135,4.3135,4.3124,4.3123,4.3123,0,0,4.3036,4.3043,4.305,4.3057,4.3066,4.3072,4.3073,4.3083,4.3086,4.3095,4.3098,4.3104,4.3115,4.312,4.3124,4.3132,4.3133,4.3134,4.3137,4.3142,4.3143,4.3144,4.3147,4.3148,4.3135,4.3135,4.3135,0,4.3034,4.3047,4.3053,4.3062,4.3067,4.3072,4.3079,4.3085,4.3095,4.3099,4.3098,4.3113,4.3118,4.3128,4.3131,4.3133,4.3136,4.3133,4.3142,4.3143,4.3144,4.3147,4.3148,4.3135,4.3135,4.3135,4.3135,0,4.3044,4.3053,4.3058,4.307,4.3076,4.3084,4.3091,4.3096,4.31,4.3105,4.3114,4.312,4.3129,4.3131,4.3134,4.3142,4.3142,4.3142,4.314,4.3145,4.3148,4.3149,4.3135,4.3135,4.3135,4.3135,0,0,4.3043,4.3061,4.3063,4.3069,4.3081,4.3087,4.3095,4.3105,4.311,4.3117,4.3124,4.3134,4.3135,4.3139,4.3142,4.3147,4.3154,4.3147,4.3147,4.3148,4.3165,4.3165,4.3166,4.3155,4.3155,4.3155,4.3164,0,4.3049,4.3065,4.3072,4.3085,4.3093,4.3099,4.3106,4.3114,4.3119,4.3126,4.3131,4.3139,4.3139,4.3142,4.3147,4.3152,4.3157,4.3151,4.3161,4.3161,4.3159,4.3168,4.3168,4.3176,4.3165,4.3166,4.3166,0,4.3057,4.3067,4.3081,4.3094,4.3097,4.3104,4.3114,4.3121,4.313,4.3134,4.314,4.3143,4.3152,4.315,4.3161,4.3157,4.3161,4.3165,4.3165,4.3166,4.3164,4.3169,4.3178,4.318,4.3168,4.3167,4.3167,0,4.3056,4.3072,4.3083,4.3088,4.3103,4.3108,4.3114,4.3123,4.3129,4.3137,4.3141,4.315,4.3155,4.3161,4.3167,4.3165,4.3178,4.3176,4.3181,4.3181,4.3183,4.3183,4.3194,4.3186,4.3186,4.3186,4.3186,0,4.3061,4.307,4.3083,4.309,4.31,4.3108,4.3117,4.3123,4.3132,4.314,4.3144,4.3151,4.3158,4.3166,4.317,4.3179,4.3181,4.3184,4.3185,4.3184,4.3183,4.3186,4.3186,4.3186,4.3186,4.3186,4.3186,0,4.3061,4.3071,4.3083,4.3097,4.3101,4.3108,4.3119,4.3126,4.3132,4.3141,4.3144,4.3153,4.3163,4.3169,4.3181,4.3184,4.3194,4.3195,4.3191,4.3192,4.3197,4.3196,4.3209,4.3212,4.3202,4.3202,4.3202,0,4.3064,4.3071,4.3087,4.3093,4.31,4.311,4.3117,4.3125,4.3132,4.3144,4.3149,4.3159,4.3167,4.3182,4.3189,4.3198,4.3199,4.3203,4.32,4.3199,4.32,4.32,4.32,4.3204,4.3204,4.3204,4.3204,0,4.3068,4.3073,4.3084,4.3096,4.3105,4.3115,4.3124,4.3129,4.3139,4.3146,4.3157,4.3164,4.3177,4.3187,4.3197,4.3202,4.3204,4.3205,4.3207,4.3205,4.3203,4.3205,4.3193,4.3204,4.3204,4.3204,4.3204,4.3204,4.307,4.3077,4.309,4.3102,4.3111,4.312,4.3128,4.3136,4.3145,4.3158,4.3162,4.3173,4.3183,4.3197,4.3203,4.3211,4.3211,4.3213,4.3213,4.3214,4.3214,4.3202,4.3213,4.3213,4.3213,4.3213,4.3213,0,4.3075,4.3084,4.3095,4.311,4.3119,4.3123,4.3134,4.3141,4.3152,4.3162,4.3171,4.3183,4.3194,4.3202,4.3213,4.3218,4.3219,4.322,4.322,4.3221,4.3214,4.3212,4.3219,4.3219,4.3219,4.3219,4.3219,4.3219,4.3079,4.3092,4.3098,4.3116,4.3124,4.3137,4.3143,4.3152,4.316,4.3175,4.3184,4.319,4.32,4.3211,4.3221,4.3223,4.3226,4.3227,4.323,4.3222,4.3222,4.3221,4.3219,4.3228,4.3228,4.3237,4.3237,4.3237]}]]